Regional Weather Roundup
Issued by NWS Green Bay, WI

Home | Current Version | Previous Version | Graphics & Text | Print | Product List | Glossary Off
Versions: 1 2 3 4 5 6 7 8 9 10 11 12 13 14 15 16 17 18 19 20 21 22 23 24 25 26 27 28 29 30 31 32 33 34 35 36 37 38 39 40 41 42 43 44 45 46 47 48 49 50

000
ASUS43 KGRB 281511
RWRGRB

NORTH-CENTRAL AND NORTHEAST WISCONSIN REGIONAL WEATHER ROUNDUP
NATIONAL WEATHER SERVICE GREEN BAY WI
1000 AM CDT SAT MAY 28 2016

WIZ005-009-010>012-018-019-281600-
NORTH CENTRAL WISCONSIN

CITY           SKY/WX    TMP DP  RH WIND       PRES   REMARKS
IRONWOOD       CLOUDY    63  63 100 CALM      29.75S
MANITOWISH WTR NOT AVBL
ARBOR VITAE    RAIN      72  69  90 CALM      29.78S
EAGLE RIVER    HVY RAIN  66  66  98 CALM      29.79F VSB 1
LAND O LAKES   CLOUDY    66  65  97 E6        29.81S FOG
RHINELANDER    LGT RAIN  68  65  90 SE3       29.79F FOG
PHILLIPS       LGT RAIN  67  65  90 CALM      29.76F
ANTIGO         CLOUDY    67  66  97 S8        29.80S
TOMAHAWK       CLOUDY    66  64  93 CALM      29.78S
MERRILL        CLOUDY    69  68  98 SE7       29.78S
$$

WIZ013-073-281600-
NORTHEAST WISCONSIN

CITY           SKY/WX    TMP DP  RH WIND       PRES   REMARKS
IRON MOUNTAIN  CLOUDY    65  64  97 SE6       29.81S FOG
MARINETTE      CLOUDY    68  63  83 S10       29.83S
OCONTO         CLOUDY    70  70 100 S9        29.81R
$$

WIZ017-030-035>037-045-281600-
CENTRAL WISCONSIN

CITY           SKY/WX    TMP DP  RH WIND       PRES   REMARKS
MEDFORD        CLOUDY    67  67  98 E5        29.76S
WAUSAU         RAIN      68  66  93 S5        29.75F VSB 1
MOSINEE        LGT RAIN  66  66 100 S7        29.77F FOG
MARSHFIELD     RAIN      68  65  90 S8        29.74S VSB 1
WISC RAPIDS    CLOUDY    69  64  84 S7G18     29.77R
STEVENS POINT  CLOUDY    67  65  94 S9G18     29.78S
WAUPACA        LGT RAIN  71  70  95 S13       29.79R
SHAWANO        CLOUDY    73  67  81 S6        29.79S
CLINTONVILLE   LGT RAIN  70  66  88 S16       29.79R
WAUTOMA        CLOUDY    70  67  90 S9        29.79R
$$

WIZ038-039-048-051-281600-
FOX VALLEY

CITY           SKY/WX    TMP DP  RH WIND       PRES   REMARKS
NWS GREEN BAY  PTSUNNY   74  67  78 S15G24    29.80S
APPLETON       CLOUDY    70  64  83 S13       29.79S
OSHKOSH        CLOUDY    73  65  75 S18G30    29.80R
FOND DU LAC    CLOUDY    73  66  78 S22G32    29.81R
$$

WIZ022-050-052-281600-
EAST CENTRAL WISCONSIN

CITY           SKY/WX    TMP DP  RH WIND       PRES   REMARKS
EPHRAIM        CLOUDY    66  63  89 S10G20    29.84F
STURGEON BAY   NOT AVBL
MANITOWOC      CLOUDY    66  61  84 S16       29.85S
SHEBOYGAN      CLOUDY    71  65  81 S14       29.84S
$$

LMZ563-521-522-541>543-281600-
LAKESHORE

STATION/POSITION TIME  TEMP    WIND        PRES    VSBY  WAVE
                       AIR SEA DIR/SP/G                  HT/PER
                 (UTC) (F)     (DEG/KT/KT) (MB)    (MI)  (FT/S)
SHEBOYGAN LKSHOR 1500   56     170/ 18/ 18 1011.0R
KEWAUNEE LKSHORE 1400   52     180/  8/  9 1010.2R
ALGOMA MARINA    1417          200/  9/ 10   N/A
NORTHPORT PIER   1400   55     140/ 10/ 15 1011.2R
N MID LAKE BUOY  1450   52 46  160/  8/ 10 1011.1F         2/ 4
SISTER BAY LKSHO 1405   63     180/ 17/ 20   N/A
CHAMBERS ISLAND  1400   63     130/  6/ 12 1010.2S
MENOMINEE LKSHOR 1400   60     160/  8/ 11 1009.2R
$$



USA.gov is the U.S. government's official web portal to all federal, state and local government web resources and services.